K5KVN-2 Weather Reports


time (UTC)temp
C
wind
direction
speed
KPH
gust
KPH
rain 1hr
cm
rain 24hr
cm
rain mn
cm
humidity
%
barometer
mb
20260502190225 18 321 14.5 25.7 0.00 0.00 0.00 39 1020.5
20260502185223 17 308 14.5 29.0 0.00 0.00 0.00 37 1020.4
20260502184223 17 275 12.9 25.7 0.00 0.00 0.00 40 1020.5
20260502183223 17 315 12.9 22.5 0.00 0.00 0.00 44 1020.5
20260502182701 18 318 12.9 27.4 0.00 0.00 0.00 41 1020.6
20260502181223 18 307 9.7 20.9 0.00 0.00 0.00 42 1020.6
20260502180707 17 297 11.3 22.5 0.00 0.00 0.00 44 1020.7
20260502170223 16 5 9.7 20.9 0.00 0.00 0.00 43 1021.4
20260502164223 16 319 9.7 19.3 0.00 0.00 0.00 43 1021.5
20260502163222 16 355 8.0 19.3 0.00 0.00 0.00 46 1021.5
20260502162224 16 334 9.7 22.5 0.00 0.00 0.00 48 1021.5
20260502161224 16 42 11.3 19.3 0.00 0.00 0.00 48 1021.4
20260502160224 16 309 11.3 19.3 0.00 0.00 0.00 47 1021.5
20260502152222 15 355 8.0 17.7 0.00 0.00 0.00 46 1021.1
20260502151223 14 5 9.7 17.7 0.00 0.00 0.00 48 1021.2
20260502150225 14 342 9.7 17.7 0.00 0.00 0.00 49 1021.4
20260502130215 8 161 0.0 0.0 0.00 0.00 0.00 90 1020.6
20260502123700 7 240 0.0 1.6 0.00 0.00 0.00 92 1020.5
20260502122213 7 240 0.0 0.0 0.00 0.00 0.00 92 1020.3
20260502121212 7 240 0.0 0.0 0.00 0.00 0.00 93 1020.2
20260502120648 6 240 0.0 0.0 0.00 0.00 0.00 93 1020.2
20260502115210 6 240 0.0 1.6 0.00 0.00 0.00 93 1020.0
20260502114212 6 259 0.0 0.0 0.00 0.00 0.00 93 1019.9
20260502113210 6 311 0.0 1.6 0.00 0.00 0.00 93 1019.8
20260502112647 6 311 0.0 0.0 0.00 0.00 0.00 93 1019.7
20260502111211 5 311 0.0 1.6 0.00 0.00 0.00 93 1019.6
20260502110212 5 343 0.0 1.6 0.00 0.00 0.00 93 1019.5
20260502105208 5 344 0.0 1.6 0.00 0.00 0.00 93 1019.4
20260502104209 5 13 0.0 3.2 0.00 0.00 0.00 93 1019.3
20260502102209 5 294 0.0 0.0 0.00 0.00 0.00 93 1019.2
20260502101211 5 294 0.0 0.0 0.00 0.00 0.00 92 1019.1
20260502100652 5 294 0.0 0.0 0.00 0.00 0.00 92 1019.1
20260502090202 5 326 0.0 0.0 0.00 0.00 0.00 93 1019.0
20260502070158 6 326 0.0 0.0 0.00 0.00 0.00 88 1019.0
20260502065155 6 326 0.0 0.0 0.00 0.00 0.00 87 1019.0
20260502064157 6 326 0.0 0.0 0.00 0.00 0.00 87 1018.9
20260502062155 6 326 0.0 0.0 0.00 0.00 0.00 84 1019.0
20260502061157 6 326 0.0 0.0 0.00 0.00 0.00 82 1019.0
20260502060627 7 326 0.0 0.0 0.00 0.00 0.00 82 1019.0
20260502055148 7 326 0.0 0.0 0.00 0.00 0.00 82 1018.9
20260502054627 7 326 0.0 0.0 0.00 0.00 0.00 82 1018.9
20260502053147 7 326 0.0 0.0 0.00 0.00 0.00 84 1018.9
20260502052148 7 326 0.0 0.0 0.00 0.00 0.00 82 1019.1
20260502051148 7 326 0.0 0.0 0.00 0.00 0.00 84 1019.2
20260502050149 7 326 0.0 0.0 0.00 0.00 0.00 82 1019.2
20260502045146 7 326 0.0 0.0 0.00 0.00 0.00 80 1019.1
20260502044144 7 326 0.0 0.0 0.00 0.00 0.00 80 1019.2
20260502043146 7 326 0.0 0.0 0.00 0.00 0.00 78 1019.0
20260502042141 8 326 0.0 0.0 0.00 0.00 0.00 77 1018.9
20260502041142 8 326 0.0 0.0 0.00 0.00 0.00 77 1019.0
20260502040137 8 326 0.0 0.0 0.00 0.00 0.00 75 1019.1
20260502035138 9 326 0.0 0.0 0.00 0.00 0.00 73 1019.0
20260502034612 9 326 0.0 0.0 0.00 0.00 0.00 71 1019.1
20260502033609 9 326 0.0 0.0 0.00 0.00 0.00 70 1019.0
20260502030129 10 326 0.0 0.0 0.00 0.00 0.00 66 1019.0
20260502025131 10 326 0.0 0.0 0.00 0.00 0.00 62 1018.9
20260502024134 11 326 0.0 0.0 0.00 0.00 0.00 62 1018.8
20260502023603 11 326 0.0 0.0 0.00 0.00 0.00 61 1018.9
20260502022131 11 326 0.0 0.0 0.00 0.00 0.00 60 1018.8
20260502021130 12 326 0.0 0.0 0.00 0.00 0.00 56 1018.7
20260502020131 12 326 0.0 0.0 0.00 0.00 0.00 54 1018.7
20260502015132 12 326 0.0 0.0 0.00 0.00 0.00 53 1018.6
20260502014129 13 326 0.0 0.0 0.00 0.00 0.00 54 1018.6
20260502013133 13 327 1.6 3.2 0.00 0.00 0.00 47 1018.6
20260502012132 14 327 3.2 4.8 0.00 0.00 0.00 44 1018.3
20260502011616 14 329 3.2 3.2 0.00 0.00 0.00 45 1018.1
20260502010124 15 329 3.2 4.8 0.00 0.00 0.00 44 1017.9
20260502005120 15 327 3.2 6.4 0.00 0.00 0.00 42 1017.8
20260502004120 15 344 3.2 9.7 0.00 0.00 0.00 42 1017.7
20260502003119 15 334 4.8 8.0 0.00 0.00 0.00 42 1017.6
20260502002549 15 339 3.2 11.3 0.00 0.00 0.00 40 1017.4
20260502001116 15 355 3.2 9.7 0.00 0.00 0.00 40 1017.2
20260501235109 16 26 4.8 14.5 0.00 0.00 0.00 37 1017.1
20260501234109 16 355 9.7 25.7 0.00 0.00 0.00 38 1017.0
20260501233107 16 5 9.7 19.3 0.00 0.00 0.00 37 1016.9
20260501232107 16 339 9.7 24.1 0.00 0.00 0.00 36 1016.7
20260501231106 16 21 8.0 16.1 0.00 0.00 0.00 36 1016.7
20260501230107 16 344 4.8 16.1 0.00 0.00 0.00 37 1016.6
20260501225105 16 302 9.7 19.3 0.00 0.00 0.00 33 1016.7
20260501224106 17 300 9.7 27.4 0.00 0.00 0.00 33 1016.7
20260501223104 17 340 9.7 20.9 0.00 0.00 0.00 34 1016.6
20260501221552 17 329 11.3 27.4 0.00 0.00 0.00 37 1016.4
20260501220104 17 325 12.9 24.1 0.00 0.00 0.00 37 1016.2
20260501215104 17 337 11.3 24.1 0.00 0.00 0.00 34 1016.3
20260501214101 17 338 11.3 24.1 0.00 0.00 0.00 35 1016.1
20260501213104 17 355 14.5 27.4 0.00 0.00 0.00 34 1015.9
20260501212101 17 333 11.3 25.7 0.00 0.00 0.00 30 1016.1
20260501211101 17 0 12.9 25.7 0.00 0.00 0.00 32 1016.1
20260501205103 18 355 9.7 20.9 0.00 0.00 0.00 31 1016.4
20260501204103 18 5 11.3 29.0 0.00 0.00 0.00 34 1016.5
20260501203102 17 338 11.3 22.5 0.00 0.00 0.00 32 1017.0
20260501201101 18 347 11.3 20.9 0.00 0.00 0.00 36 1017.7
20260501195549 18 327 12.9 19.3 0.00 0.00 0.00 34 1018.0
20260501194103 17 313 11.3 20.9 0.00 0.00 0.00 40 1018.2
20260501193103 17 333 8.0 20.9 0.00 0.00 0.00 40 1018.4
20260501192102 17 267 8.0 17.7 0.00 0.00 0.00 40 1018.6
20260501191101 17 242 8.0 16.1 0.00 0.00 0.00 45 1018.7